{"data":{"norad_id":68219,"intl_designator":"2026-053N","name":"STARLINK-37106","alt_names":[],"object_type":"PAYLOAD","status":"ACTIVE","operator":null,"country":"US","launch_date":"2026-03-17","launch_site_code":"AFWTR","launch_vehicle":null,"mission":null,"orbit_class":"UNKNOWN","rcs_meters":null,"size_class":null,"mass_kg":null,"dimensions":null,"purposes":["comms"],"wikipedia_slug":null,"has_3d_model":false,"image_url":null,"decayed_at":null,"tle_current":{"epoch":"2026-09-20T02:40:39.361152Z","epoch_age_seconds":85208,"freshness":"FRESH","line1":"1 68219U 26053N   26263.11156668  .00013759  00000+0  42764-3 0  9995","line2":"2 68219  97.2849 136.8928 0001732  83.9123 276.2317 15.33451334 30017","mean_motion":15.33451334,"eccentricity":0.0001732,"inclination_deg":97.2849,"raan_deg":136.8928,"arg_perigee_deg":83.9123,"mean_anomaly_deg":276.2317,"bstar":0.00042764,"rev_number":3001,"period_min":93.905816772402,"perigee_km":464.33900687316,"apogee_km":466.70965115753,"semimajor_km":6843.6613290153,"source":"CELESTRAK","updated_at":"2026-09-20T09:00:43.835174Z"}}}